FW9881 Weather Reports


time (UTC)temp
F
wind
direction
speed
knots
gust
knots
rain 1hr
in
rain 24hr
in
rain mn
in
humidity
%
barometer
mb
20260507185126 57 335 0.9 3.5 0.00 0.20 0.00 39 1009.8
20260507184126 56 251 3.5 7.8 0.00 0.20 0.00 39 1009.8
20260507183125 56 270 3.5 6.1 0.00 0.20 0.00 39 1009.9
20260507182126 56 277 5.2 7.8 0.00 0.21 0.00 38 1010.3
20260507181126 56 316 5.2 9.6 0.00 0.22 0.00 38 1010.2
20260507175226 55 278 4.3 7.8 0.00 0.24 0.00 39 1010.3
20260507175142 54 337 2.6 7.8 0.00 0.24 0.00 38 1010.2
20260507174228 55 266 6.1 8.7 0.00 0.25 0.00 37 1010.3
20260507173225 55 351 3.5 7.8 0.00 0.26 0.00 38 1010.3
20260507173125 55 336 1.7 3.5 0.00 0.26 0.00 38 1010.3
20260507172126 55 269 2.6 6.1 0.00 0.27 0.00 37 1010.3
20260507171225 55 270 5.2 12.2 0.00 0.28 0.00 39 1010.5
20260507171124 55 334 3.5 8.7 0.00 0.28 0.00 38 1010.3
20260507170125 54 272 5.2 8.7 0.00 0.28 0.00 38 1010.6
20260507170024 54 252 5.2 7.8 0.00 0.28 0.00 39 1010.8
20260507165026 54 334 5.2 9.6 0.00 0.30 0.00 39 1011.0
20260507164125 54 297 5.2 9.6 0.00 0.30 0.00 41 1011.0
20260507163224 54 272 4.3 9.6 0.00 0.30 0.00 41 1011.1
20260507162227 53 241 5.2 7.8 0.00 0.30 0.00 41 1011.0
20260507161225 53 314 3.5 6.1 0.00 0.30 0.00 40 1011.2
20260507160323 54 252 6.1 9.6 0.00 0.30 0.00 41 1011.3
20260507160224 54 336 4.3 7.8 0.00 0.30 0.00 42 1011.2
20260507155225 54 295 2.6 5.2 0.00 0.30 0.00 42 1011.3
20260507154227 53 357 7.0 12.2 0.00 0.30 0.00 41 1011.1
20260507152341 52 276 0.9 2.6 0.00 0.30 0.00 45 1011.4
20260507151426 53 293 3.5 6.1 0.00 0.30 0.00 44 1011.7
20260507150425 52 317 1.7 3.5 0.00 0.30 0.00 45 1011.7
20260507150326 52 285 6.1 9.6 0.00 0.30 0.00 46 1011.6
20260507150227 52 291 3.5 6.1 0.00 0.30 0.00 46 1011.8
20260507144327 52 335 5.2 8.7 0.00 0.30 0.00 49 1011.7
20260507143341 51 349 7.8 15.6 0.00 0.30 0.00 54 1011.5
20260507143226 51 339 3.5 6.1 0.00 0.30 0.00 54 1011.6
20260507142226 51 266 3.5 7.8 0.00 0.30 0.00 59 1011.7
20260507141225 50 320 7.0 10.4 0.00 0.30 0.00 63 1011.5
20260507141126 50 309 3.5 7.0 0.00 0.30 0.00 64 1011.7
20260507135224 49 249 6.1 10.4 0.00 0.30 0.00 73 1011.6
20260507135126 49 289 6.1 10.4 0.00 0.30 0.00 72 1011.6
20260507134140 50 318 3.5 7.8 0.00 0.30 0.00 73 1011.6
20260507133125 49 311 3.5 6.1 0.00 0.30 0.00 74 1011.5
20260507133041 49 252 4.3 7.8 0.00 0.30 0.00 74 1011.4
20260507131026 49 324 2.6 6.1 0.00 0.30 0.00 76 1011.7
20260507130926 49 296 3.5 7.8 0.00 0.30 0.00 76 1011.6
20260507125924 49 271 2.6 6.1 0.00 0.30 0.00 77 1011.6
20260507123926 48 319 3.5 7.0 0.00 0.30 0.00 78 1011.3
20260507122927 48 240 5.2 9.6 0.00 0.30 0.00 79 1011.3
20260507122024 48 253 3.5 6.1 0.00 0.30 0.00 80 1011.4
20260507121024 47 251 6.1 8.7 0.00 0.30 0.00 80 1011.4
20260507120026 47 344 0.9 2.6 0.00 0.30 0.00 82 1011.4
20260507115124 47 271 5.2 10.4 0.00 0.30 0.00 83 1011.3
20260507114224 46 295 4.3 7.8 0.00 0.30 0.00 84 1011.2
20260507113225 46 302 2.6 4.3 0.00 0.30 0.00 86 1011.4
20260507112225 46 327 3.5 5.2 0.00 0.30 0.00 87 1011.1
20260507111224 45 326 2.6 4.3 0.00 0.30 0.00 89 1011.2
20260507110224 44 318 1.7 3.5 0.00 0.30 0.00 89 1011.2
20260507105241 44 337 1.7 2.6 0.00 0.30 0.00 91 1011.0
20260507104324 43 346 1.7 3.5 0.00 0.30 0.00 90 1010.8
20260507103325 43 336 2.6 4.3 0.00 0.30 0.00 91 1010.5
20260507103226 43 299 2.6 7.0 0.00 0.30 0.00 91 1010.6
20260507102324 43 349 2.6 4.3 0.00 0.30 0.00 90 1010.5
20260507102223 43 312 3.5 6.1 0.00 0.30 0.00 91 1010.6
20260507095227 44 326 2.6 4.3 0.00 0.30 0.00 90 1010.6
20260507095125 44 346 1.7 4.3 0.00 0.30 0.00 90 1010.6
20260507094126 44 265 2.6 5.2 0.00 0.30 0.00 89 1011.0
20260507093125 44 343 2.6 4.3 0.00 0.30 0.00 90 1010.6
20260507093025 44 346 2.6 3.5 0.00 0.30 0.00 90 1010.9
20260507092025 44 315 0.0 0.9 0.00 0.30 0.00 90 1011.1
20260507091026 44 350 0.9 2.6 0.00 0.30 0.00 90 1011.1
20260507090025 44 7 1.7 2.6 0.00 0.30 0.00 90 1011.4
20260507083223 44 315 0.9 1.7 0.00 0.30 0.00 90 1011.0
20260507082226 44 310 1.7 3.5 0.00 0.30 0.00 89 1010.9
20260507081226 44 351 2.6 4.3 0.00 0.30 0.00 90 1011.0
20260507080224 44 311 2.6 3.5 0.00 0.30 0.00 90 1011.0
20260507073227 44 337 0.0 0.0 0.00 0.30 0.00 90 1011.2
20260507071225 44 11 0.0 1.7 0.00 0.30 0.00 90 1010.5
20260507070225 45 347 0.9 1.7 0.00 0.30 0.00 90 1010.5
20260507064225 45 356 0.9 2.6 0.00 0.30 0.00 90 1010.4
20260507062225 45 336 2.6 6.1 0.00 0.30 0.00 91 1010.4
20260507062125 46 341 1.7 2.6 0.00 0.30 0.00 91 1010.3
20260507062026 46 334 1.7 4.3 0.00 0.30 0.00 91 1010.4
20260507061123 46 321 0.9 1.7 0.00 0.30 0.00 91 1010.8
20260507060125 46 304 0.9 2.6 0.00 0.30 0.00 91 1010.8
20260507055126 46 247 0.0 0.0 0.00 0.30 0.00 90 1010.8
20260507055040 46 247 0.0 0.9 0.00 0.30 0.00 91 1010.9
20260507054124 46 157 0.0 0.0 0.00 0.30 0.00 91 1010.8
20260507054025 46 157 0.0 0.0 0.00 0.30 0.00 91 1010.8
20260507053925 46 157 0.0 0.0 0.00 0.30 0.00 90 1010.8
20260507053025 46 157 0.0 0.0 0.00 0.30 0.00 91 1011.0
20260507052025 46 157 0.0 0.0 0.00 0.30 0.00 91 1010.8
20260507050927 46 157 0.9 1.7 0.00 0.30 0.00 91 1010.9
20260507045925 47 135 0.0 0.9 0.00 0.30 0.00 91 1010.9
20260507044925 47 336 1.7 2.6 0.00 0.30 0.00 91 1010.8
20260507044824 47 11 1.7 3.5 0.00 0.30 0.00 91 1010.7
20260507044725 47 22 1.7 3.5 0.00 0.30 0.00 91 1010.6
20260507043725 47 178 0.0 0.9 0.00 0.30 0.00 90 1010.5
20260507043639 47 337 0.0 0.9 0.00 0.30 0.00 90 1010.4
20260507043525 47 337 0.0 1.7 0.00 0.30 0.00 90 1010.4
20260507041624 48 108 0.9 1.7 0.00 0.30 0.00 91 1010.5
20260507041524 48 337 0.0 0.9 0.00 0.30 0.00 91 1010.6
20260507041425 48 354 1.7 1.7 0.00 0.30 0.00 91 1010.5
20260507040424 48 180 0.0 0.0 0.00 0.30 0.00 91 1011.0
20260507035446 48 113 1.7 2.6 0.00 0.30 0.30 90 1010.8
20260507033630 48 337 0.0 0.0 0.00 0.30 0.30 91 1010.5
20260507033534 48 337 0.0 0.0 0.01 0.30 0.30 90 1010.5
20260507033431 48 325 0.9 2.6 0.01 0.30 0.30 90 1010.4
20260507032433 49 257 0.0 1.7 0.02 0.30 0.30 91 1010.3
20260507031532 49 284 2.6 3.5 0.03 0.30 0.30 91 1010.5
20260507025631 50 226 0.0 0.0 0.03 0.30 0.30 90 1010.5
20260507024730 50 184 0.0 1.7 0.04 0.30 0.30 91 1010.4
20260507023731 51 258 3.5 6.1 0.04 0.30 0.30 91 1010.4
20260507023630 51 230 2.6 6.1 0.04 0.30 0.28 91 1010.5
20260507022631 52 294 0.9 2.6 0.02 0.28 0.28 91 1010.3
20260507021730 52 298 2.6 6.1 0.01 0.27 0.27 91 1010.2
20260507020830 52 239 1.7 4.3 0.02 0.27 0.27 91 1009.6
20260507020730 52 187 1.7 6.1 0.02 0.27 0.27 90 1009.7
20260507020632 52 304 0.9 3.5 0.02 0.27 0.27 91 1009.7
20260507015730 53 353 0.9 3.5 0.03 0.27 0.27 91 1009.6
20260507015646 53 354 1.7 5.2 0.03 0.27 0.27 91 1009.7
20260507014731 54 326 0.9 2.6 0.03 0.26 0.26 90 1009.5
20260507013730 55 323 2.6 5.2 0.06 0.26 0.26 89 1009.3
20260507011732 57 331 3.5 6.1 0.06 0.26 0.26 89 1009.0
20260507011633 57 351 4.3 8.7 0.06 0.26 0.26 89 1009.1
20260507010631 57 276 0.9 1.7 0.05 0.25 0.25 89 1009.0
20260507010532 57 292 0.0 1.7 0.05 0.25 0.25 89 1008.9
20260507005530 57 251 0.0 1.7 0.04 0.24 0.24 89 1008.7
20260507004531 57 225 0.0 0.0 0.02 0.22 0.22 89 1008.5
20260507002532 58 198 0.9 2.6 0.00 0.20 0.20 89 1008.3
20260507001532 58 244 1.7 4.3 0.00 0.20 0.20 89 1008.1
20260507000531 57 211 0.0 1.7 0.00 0.20 0.20 89 1008.2
20260506235530 57 259 1.7 4.3 0.00 0.22 0.20 88 1008.1
20260506235432 57 249 0.9 4.3 0.00 0.22 0.20 89 1008.1
20260506234432 57 224 0.9 1.7 0.00 0.22 0.20 89 1007.9
20260506233431 57 223 1.7 6.1 0.00 0.22 0.20 89 1007.9
20260506232448 57 148 0.9 5.2 0.00 0.22 0.20 88 1007.8
20260506231431 57 155 2.6 4.3 0.00 0.22 0.20 88 1007.9
20260506230431 57 223 1.7 3.5 0.00 0.22 0.20 88 1008.0
20260506225529 57 227 2.6 4.3 0.00 0.22 0.20 89 1007.9
20260506224531 57 196 0.9 2.6 0.00 0.22 0.20 90 1008.0
20260506224433 57 173 1.7 2.6 0.00 0.22 0.20 89 1007.9
20260506223530 57 165 3.5 9.6 0.00 0.22 0.20 90 1008.1
20260506222532 58 183 3.5 7.0 0.00 0.22 0.20 90 1008.1
20260506221533 58 203 0.9 2.6 0.00 0.22 0.20 90 1008.1
20260506220631 58 247 1.7 4.3 0.00 0.22 0.20 90 1008.2
20260506215634 58 200 2.6 7.0 0.00 0.22 0.20 90 1008.1
20260506213829 58 206 3.5 7.8 0.00 0.22 0.20 89 1008.1
20260506213731 58 140 2.6 6.1 0.00 0.22 0.20 90 1008.1
20260506212731 58 220 2.6 5.2 0.00 0.22 0.20 89 1008.1
20260506211731 59 200 3.5 9.6 0.00 0.22 0.20 88 1008.1
20260506210730 58 193 0.9 1.7 0.00 0.22 0.20 89 1008.2
20260506205747 58 161 3.5 7.8 0.01 0.22 0.20 89 1008.1
20260506203832 59 182 1.7 8.7 0.03 0.22 0.20 89 1008.4
20260506203732 59 207 4.3 12.2 0.03 0.22 0.20 89 1008.5
20260506202732 59 204 3.5 6.1 0.04 0.22 0.20 89 1008.5
20260506201830 59 210 2.6 7.8 0.06 0.22 0.20 89 1008.5
20260506200830 59 190 1.7 7.8 0.09 0.22 0.20 89 1008.7
20260506200731 59 203 0.9 2.6 0.09 0.22 0.20 89 1008.7
20260506195747 59 208 3.5 7.0 0.08 0.21 0.19 89 1008.7
20260506195646 59 177 2.6 6.1 0.09 0.21 0.19 88 1008.8
20260506193730 59 219 0.9 3.5 0.07 0.19 0.17 88 1009.0
20260506191731 59 112 0.0 0.9 0.05 0.16 0.13 88 1009.1
20260506190830 60 202 0.0 1.7 0.03 0.13 0.11 89 1009.2